User: anonymous   Login
Location: Unspecified
(0.0000°N, 0.0000°E)
Time: 07:21:05
(UTC+00:00)
Language:

Azur - Orbit

View from above orbital plane
View from above orbital plane
View from above satellite
View from above satellite

Ground track
Ground track

The orbit data is extracted from the following two-line orbital elements,

1 04221U 69097A   21171.26067504  .00002372  00000-0  11202-3 0  9995
2 04221 102.7073   4.7069 0605188  44.1672 320.6206 14.30924344457974
Epoch (UTC): 20 June 2021 06:15:22
Eccentricity: 0.0605188
inclination: 102.7073°
perigee height: 355 km
apogee height: 1222 km
right ascension of ascending node: 4.7069°
argument of perigee: 44.1672°
revolutions per day: 14.30924344
mean anomaly at epoch: 320.6206°
orbit number at epoch: 45797

The dashed part of the orbit path shows where the satellite is in the earth's shadow,  

DLR